Coolidge Muni, Coolidge, AZ

3:23 PM MST on December 07, 2019 (GMT -0700)
Coolidge Muni, Coolidge

Weather History for KP08 - September, 2019

Change the Weather History Date:

Saturday, September 28, 2019

  Actual Average (KCGZ) Record (KCGZ)
Temperature  
Mean Temperature 80 °F -  
Max Temperature 91 °F 92 °F 102 °F (2000)
Min Temperature 68 °F 64 °F 51 °F (2013)
Cooling Degree Days 14    
Growing Degree Days 30 (Base 50)    
Moisture  
Dew Point 55 °F    
Average Humidity 46    
Maximum Humidity 73    
Minimum Humidity 26    
Precipitation  
Precipitation 0.00 in - - ()
Sea Level Pressure  
Sea Level Pressure 29.74 in    
Wind  
Wind Speed 6 mph ()    
Max Wind Speed 14 mph    
Max Gust Speed 20 mph    
Visibility 10.0 miles    
Events      
Averages and records for this station are not official NWS values.
T = Trace of Precipitation, MM = Missing Value Source: Averaged Metar Reports

Daily Weather History Graph

Daily Weather History Graph

Search for Another Location

Airport or City:

Astronomy

Sep. 28, 2019 Rise Set
Actual Time 6:17 AM MST 6:14 PM MST
Civil Twilight 5:53 AM MST 6:39 PM MST
Nautical Twilight 5:24 AM MST 7:07 PM MST
Astronomical Twilight 4:55 AM MST 7:36 PM MST
Moon 6:02 AM MST (9/28) 6:40 PM MST (9/28)
Length of Visible Light 12h 45m
Length of Day
11h 56m
New Moon, 0% of the Moon is Illuminated
Sep 28
New Moon
Oct 5
First Quarter
Oct 13
Full
Oct 21
Last Quarter
Oct 27
New

Hourly Weather History & Observations

Time (MST) Temp. Heat Index Dew Point Humidity Pressure Visibility Wind Dir Wind Speed Gust Speed Precip Events Conditions
12:15 AM 69.8 °F - 60.8 °F 73% 29.78 in 10.0 mi ESE 5.8 mph - N/A   Clear
12:35 AM 69.8 °F - 60.8 °F 73% 29.77 in 10.0 mi ESE 6.9 mph - N/A   Clear
12:55 AM 69.8 °F - 60.8 °F 73% 29.78 in 10.0 mi ESE 6.9 mph - N/A   Clear
1:15 AM 69.8 °F - 59.0 °F 68% 29.77 in 10.0 mi ESE 8.1 mph - N/A   Clear
1:35 AM 69.8 °F - 59.0 °F 68% 29.77 in 10.0 mi ESE 6.9 mph - N/A   Clear
1:55 AM 69.8 °F - 59.0 °F 68% 29.77 in 10.0 mi ESE 8.1 mph - N/A   Clear
2:15 AM 69.8 °F - 59.0 °F 68% 29.76 in 10.0 mi ESE 6.9 mph - N/A   Clear
2:35 AM 69.8 °F - 59.0 °F 68% 29.76 in 10.0 mi ESE 6.9 mph - N/A   Clear
2:55 AM 69.8 °F - 59.0 °F 68% 29.76 in 10.0 mi SE 6.9 mph - N/A   Clear
3:15 AM 69.8 °F - 59.0 °F 68% 29.75 in 10.0 mi SE 6.9 mph - N/A   Clear
3:35 AM 69.8 °F - 59.0 °F 68% 29.75 in 10.0 mi ESE 6.9 mph - N/A   Clear
3:55 AM 69.8 °F - 59.0 °F 68% 29.75 in 10.0 mi ESE 6.9 mph - N/A   Clear
4:15 AM 69.8 °F - 59.0 °F 68% 29.75 in 10.0 mi ESE 9.2 mph - N/A   Clear
4:35 AM 68.0 °F - 59.0 °F 73% 29.76 in 10.0 mi ESE 5.8 mph - N/A   Clear
4:55 AM 68.0 °F - 59.0 °F 73% 29.76 in 10.0 mi Calm Calm - N/A   Clear
5:15 AM 68.0 °F - 59.0 °F 73% 29.76 in 10.0 mi ESE 3.5 mph - N/A   Clear
5:35 AM 68.0 °F - 59.0 °F 73% 29.77 in 10.0 mi ESE 3.5 mph - N/A   Clear
5:55 AM 68.0 °F - 59.0 °F 73% 29.77 in 10.0 mi East 4.6 mph - N/A   Clear
6:15 AM 68.0 °F - 59.0 °F 73% 29.77 in 10.0 mi ESE 5.8 mph - N/A   Clear
6:35 AM 68.0 °F - 57.2 °F 68% 29.78 in 10.0 mi ESE 4.6 mph - N/A   Clear
6:55 AM 69.8 °F - 57.2 °F 64% 29.78 in 10.0 mi East 3.5 mph - N/A   Clear
7:15 AM 69.8 °F - 57.2 °F 64% 29.78 in 10.0 mi Calm Calm - N/A   Clear
7:35 AM 71.6 °F - 57.2 °F 60% 29.79 in 10.0 mi Calm Calm - N/A   Clear
7:55 AM 75.2 °F - 57.2 °F 53% 29.79 in 10.0 mi South 4.6 mph - N/A   Clear
8:15 AM 73.4 °F - 59.0 °F 61% 29.80 in 10.0 mi WNW 4.6 mph - N/A   Clear
8:35 AM 75.2 °F - 57.2 °F 53% 29.79 in 10.0 mi Calm Calm - N/A   Clear
8:55 AM 78.8 °F - 57.2 °F 47% 29.80 in 10.0 mi Calm Calm - N/A   Clear
9:15 AM 78.8 °F - 57.2 °F 47% 29.80 in 10.0 mi Calm Calm - N/A   Clear
9:35 AM 80.6 °F 80.8 °F 57.2 °F 45% 29.80 in 10.0 mi Calm Calm - N/A   Clear
9:55 AM 82.4 °F 82.0 °F 57.2 °F 42% 29.79 in 10.0 mi South 4.6 mph - N/A   Clear
10:15 AM 82.4 °F 81.7 °F 55.4 °F 39% 29.79 in 10.0 mi Variable 5.8 mph - N/A   Clear
10:35 AM 84.2 °F 83.0 °F 55.4 °F 37% 29.79 in 10.0 mi Variable 4.6 mph - N/A   Clear
10:55 AM 84.2 °F 83.0 °F 55.4 °F 37% 29.78 in 10.0 mi SSW 8.1 mph 16.1 mph N/A   Clear
11:15 AM 84.2 °F 82.8 °F 53.6 °F 35% 29.78 in 10.0 mi Calm Calm 12.7 mph N/A   Clear
11:35 AM 86.0 °F 84.5 °F 55.4 °F 35% 29.78 in 10.0 mi SSW 9.2 mph - N/A   Clear
11:55 AM 86.0 °F 84.5 °F 55.4 °F 35% 29.77 in 10.0 mi Variable 5.8 mph 12.7 mph N/A   Clear
12:15 PM 87.8 °F 86.1 °F 55.4 °F 33% 29.76 in 10.0 mi SW 9.2 mph - N/A   Clear
12:35 PM 87.8 °F 85.7 °F 53.6 °F 31% 29.75 in 10.0 mi SSW 6.9 mph 15.0 mph N/A   Clear
12:55 PM 87.8 °F 85.7 °F 53.6 °F 31% 29.74 in 10.0 mi Variable 6.9 mph - N/A   Clear
1:15 PM 89.6 °F - 51.8 °F 27% 29.73 in 10.0 mi SW 13.8 mph - N/A   Clear
1:35 PM 89.6 °F - 51.8 °F 27% 29.72 in 10.0 mi SSW 12.7 mph - N/A   Clear
1:55 PM 89.6 °F - 51.8 °F 27% 29.71 in 10.0 mi SSE 13.8 mph - N/A   Clear
2:15 PM 89.6 °F - 51.8 °F 27% 29.70 in 10.0 mi South 6.9 mph 16.1 mph N/A   Clear
2:35 PM 89.6 °F 87.3 °F 53.6 °F 29% 29.70 in 10.0 mi West 8.1 mph - N/A   Clear
2:55 PM 91.4 °F 89.1 °F 53.6 °F 28% 29.69 in 10.0 mi SSW 5.8 mph 16.1 mph N/A   Clear
3:15 PM 91.4 °F - 51.8 °F 26% 29.69 in 10.0 mi South 12.7 mph - N/A   Clear
3:35 PM 91.4 °F - 51.8 °F 26% 29.68 in 10.0 mi SW 11.5 mph 19.6 mph N/A   Clear
3:55 PM 91.4 °F 89.1 °F 53.6 °F 28% 29.68 in 10.0 mi SW 11.5 mph 18.4 mph N/A   Clear
4:15 PM 91.4 °F - 51.8 °F 26% 29.68 in 10.0 mi SW 13.8 mph - N/A   Clear
4:35 PM 91.4 °F - 51.8 °F 26% 29.68 in 10.0 mi SSW 11.5 mph 18.4 mph N/A   Clear
4:55 PM 91.4 °F - 51.8 °F 26% 29.67 in 10.0 mi South 10.4 mph 18.4 mph N/A   Clear
5:15 PM 91.4 °F - 51.8 °F 26% 29.67 in 10.0 mi SW 10.4 mph - N/A   Clear
5:35 PM 89.6 °F 87.3 °F 53.6 °F 29% 29.68 in 10.0 mi SW 10.4 mph - N/A   Clear
5:55 PM 89.6 °F 87.3 °F 53.6 °F 29% 29.68 in 10.0 mi SW 10.4 mph - N/A   Clear
6:15 PM 87.8 °F 85.7 °F 53.6 °F 31% 29.68 in 10.0 mi SW 10.4 mph - N/A   Clear
6:35 PM 87.8 °F - 51.8 °F 29% 29.68 in 10.0 mi SW 9.2 mph - N/A   Clear
6:55 PM 86.0 °F - 51.8 °F 31% 29.68 in 10.0 mi SSW 6.9 mph - N/A   Clear
7:15 PM 84.2 °F - 51.8 °F 33% 29.68 in 10.0 mi SSW 8.1 mph - N/A   Clear
7:35 PM 84.2 °F - 51.8 °F 33% 29.68 in 10.0 mi SSW 8.1 mph - N/A   Clear
7:55 PM 82.4 °F - 51.8 °F 35% 29.69 in 10.0 mi SSW 6.9 mph - N/A   Clear
8:15 PM 82.4 °F - 51.8 °F 35% 29.70 in 10.0 mi South 6.9 mph - N/A   Clear
8:35 PM 82.4 °F 81.4 °F 53.6 °F 37% 29.70 in 10.0 mi South 8.1 mph - N/A   Clear
8:55 PM 80.6 °F 80.3 °F 53.6 °F 39% 29.71 in 10.0 mi South 8.1 mph - N/A   Clear
9:15 PM 80.6 °F 80.3 °F 53.6 °F 39% 29.71 in 10.0 mi SSW 8.1 mph - N/A   Clear
9:30 PM 82.4 °F - 51.8 °F 35% 29.72 in 10.0 mi SW 11.5 mph - N/A   Clear
9:55 PM 80.6 °F 80.3 °F 53.6 °F 39% 29.73 in 10.0 mi SSW 8.1 mph - N/A   Clear
10:15 PM 80.6 °F 80.3 °F 53.6 °F 39% 29.73 in 10.0 mi South 8.1 mph - N/A   Clear
10:35 PM 78.8 °F - 53.6 °F 42% 29.74 in 10.0 mi South 8.1 mph - N/A   Clear
10:55 PM 78.8 °F - 53.6 °F 42% 29.74 in 10.0 mi South 5.8 mph - N/A   Clear
11:10 PM 77.0 °F - 53.6 °F 44% 29.74 in 10.0 mi SSW 6.9 mph - N/A   Clear
11:35 PM 77.0 °F - 53.6 °F 44% 29.74 in 10.0 mi SE 5.8 mph - N/A   Clear
11:55 PM 77.0 °F - 53.6 °F 44% 29.75 in 10.0 mi South 6.9 mph - N/A   Clear